Weather History for Great Bend, KS

Change the Weather History Date:

Monday, April 29, 2013

  Actual Average Record
Temperature  
Mean Temperature 69 °F -  
Max Temperature 87 °F 72 °F 90 °F (1987)
Min Temperature 51 °F 47 °F 31 °F (1956)
Cooling Degree Days 4    
Growing Degree Days 19 (Base 50)    
Moisture  
Dew Point 50 °F    
Average Humidity 51    
Maximum Humidity 88    
Minimum Humidity 25    
Precipitation  
Precipitation 0.00 in - - ()
Sea Level Pressure  
Sea Level Pressure 29.67 in    
Wind  
Wind Speed 12 mph (SSW)    
Max Wind Speed 31 mph    
Max Gust Speed 38 mph    
Visibility 10 miles    
Events      
Averages and records for this station are not official NWS values.
T = Trace of Precipitation, MM = Missing Value Source: NWS Daily Summary

Daily Weather History Graph

Daily Weather History Graph

Search for Another Location

Airport:

Trip Planner

Search our weather history database for the weather conditions in past years. The results will help you decide how hot, cold, wet, or windy it might be!

Date:

Astronomy

Apr. 29, 2013 Rise Set
Actual Time 6:40 AM CDT 8:25 PM CDT
Civil Twilight 6:12 AM CDT 8:53 PM CDT
Nautical Twilight 5:38 AM CDT 9:28 PM CDT
Astronomical Twilight 5:01 AM CDT 10:04 PM CDT
Moon No Moon Rise 10:04 AM CDT (4/29)
Length of Visible Light 14h 41m
Length of Day
13h 44m
Waning Gibbous, 80% of the Moon is Illuminated
Apr 29
Waning Gibbous
May 2
Last Quarter
May 9
New
May 17
First Quarter
May 24
Full

Hourly Weather History & Observations

Time (CDT) Temp. Heat Index Dew Point Humidity Pressure Visibility Wind Dir Wind Speed Gust Speed Precip Events Conditions
12:15 AM 66.2 °F - 48.2 °F 52% 29.72 in 10.0 mi SSW 18.4 mph - N/A   Clear
12:35 AM 64.4 °F - 48.2 °F 56% 29.72 in 10.0 mi SSW 16.1 mph - N/A   Clear
12:55 AM 64.4 °F - 46.4 °F 52% 29.72 in 10.0 mi SSW 16.1 mph - N/A   Clear
1:15 AM 62.6 °F - 46.4 °F 55% 29.73 in 10.0 mi SSW 10.4 mph - N/A   Clear
1:35 AM 60.8 °F - 46.4 °F 59% 29.73 in 10.0 mi SSW 12.7 mph - N/A   Clear
1:55 AM 62.6 °F - 46.4 °F 55% 29.73 in 10.0 mi SSW 13.8 mph - N/A   Clear
2:15 AM 62.6 °F - 46.4 °F 55% 29.73 in 10.0 mi SSW 15.0 mph - N/A   Clear
2:35 AM 62.6 °F - 48.2 °F 59% 29.72 in 10.0 mi SSW 12.7 mph - N/A   Clear
2:55 AM 62.6 °F - 48.2 °F 59% 29.73 in 10.0 mi SSW 6.9 mph - N/A   Clear
3:15 AM 57.2 °F - 48.2 °F 72% 29.74 in 10.0 mi NE 5.8 mph - N/A   Clear
3:35 AM 60.8 °F - 48.2 °F 63% 29.74 in 10.0 mi Calm Calm - N/A   Clear
3:55 AM 57.2 °F - 46.4 °F 67% 29.75 in 10.0 mi North 10.4 mph - N/A   Clear
4:15 AM 55.4 °F - 48.2 °F 77% 29.75 in 10.0 mi Calm Calm - N/A   Clear
4:35 AM 62.6 °F - 51.8 °F 68% 29.76 in 10.0 mi NNW 3.5 mph - N/A   Clear
4:55 AM 57.2 °F - 48.2 °F 72% 29.75 in 10.0 mi WSW 8.1 mph - N/A   Clear
5:15 AM 59.0 °F - 51.8 °F 77% 29.75 in 10.0 mi West 6.9 mph - N/A   Clear
5:35 AM 57.2 °F - 51.8 °F 82% 29.75 in 10.0 mi SSW 6.9 mph - N/A   Clear
5:55 AM 57.2 °F - 51.8 °F 82% 29.75 in 10.0 mi SW 8.1 mph - N/A   Clear
6:15 AM 53.6 °F - 48.2 °F 82% 29.75 in 10.0 mi WSW 5.8 mph - N/A   Clear
6:35 AM 53.6 °F - 46.4 °F 77% 29.76 in 10.0 mi WSW 5.8 mph - N/A   Clear
6:55 AM 53.6 °F - 48.2 °F 82% 29.76 in 10.0 mi WSW 5.8 mph - N/A   Clear
7:15 AM 51.8 °F - 46.4 °F 82% 29.76 in 10.0 mi SW 3.5 mph - N/A   Clear
7:35 AM 51.8 °F - 46.4 °F 82% 29.76 in 10.0 mi SSW 4.6 mph - N/A   Clear
7:55 AM 55.4 °F - 51.8 °F 88% 29.77 in 10.0 mi SW 4.6 mph - N/A   Clear
8:15 AM 59.0 °F - 53.6 °F 82% 29.77 in 10.0 mi Calm Calm - N/A   Clear
8:35 AM 62.6 °F - 55.4 °F 77% 29.76 in 10.0 mi SW 3.5 mph - N/A   Clear
8:55 AM 64.4 °F - 53.6 °F 68% 29.77 in 10.0 mi WSW 5.8 mph - N/A   Clear
9:15 AM 64.4 °F - 53.6 °F 68% 29.76 in 10.0 mi SW 8.1 mph - N/A   Clear
9:35 AM 66.2 °F - 51.8 °F 60% 29.75 in 10.0 mi SSW 9.2 mph - N/A   Clear
9:55 AM 68.0 °F - 50.0 °F 52% 29.75 in 10.0 mi SSW 11.5 mph - N/A   Clear
10:15 AM 69.8 °F - 51.8 °F 53% 29.74 in 10.0 mi SSW 9.2 mph - N/A   Clear
10:35 AM 69.8 °F - 50.0 °F 49% 29.74 in 10.0 mi SSW 10.4 mph - N/A   Clear
10:55 AM 71.6 °F - 51.8 °F 50% 29.73 in 10.0 mi SSW 9.2 mph - N/A   Clear
11:15 AM 71.6 °F - 53.6 °F 53% 29.72 in 10.0 mi South 8.1 mph - N/A   Clear
11:35 AM 73.4 °F - 51.8 °F 47% 29.72 in 10.0 mi SW 4.6 mph - N/A   Clear
11:55 AM 73.4 °F - 50.0 °F 44% 29.72 in 10.0 mi SSW 8.1 mph - N/A   Clear
12:15 PM 75.2 °F - 50.0 °F 41% 29.71 in 10.0 mi Calm Calm - N/A   Clear
12:35 PM 75.2 °F - 51.8 °F 44% 29.71 in 10.0 mi SW 6.9 mph - N/A   Clear
12:55 PM 78.8 °F - 51.8 °F 39% 29.70 in 10.0 mi South 9.2 mph - N/A   Clear
1:15 PM 78.8 °F - 50.0 °F 36% 29.69 in 10.0 mi WSW 9.2 mph 16.1 mph N/A   Clear
1:35 PM 78.8 °F - 48.2 °F 34% 29.68 in 10.0 mi South 8.1 mph 17.3 mph N/A   Clear
1:55 PM 80.6 °F - 51.8 °F 37% 29.68 in 10.0 mi West 6.9 mph - N/A   Clear
2:15 PM 80.6 °F - 51.8 °F 37% 29.66 in 10.0 mi South 6.9 mph - N/A   Clear
2:35 PM 82.4 °F - 50.0 °F 32% 29.64 in 10.0 mi East 6.9 mph - N/A   Clear
2:55 PM 84.2 °F - 51.8 °F 33% 29.63 in 10.0 mi East 9.2 mph - N/A   Clear
3:15 PM 84.2 °F 82.8 °F 53.6 °F 35% 29.61 in 10.0 mi South 9.2 mph - N/A   Clear
3:35 PM 87.8 °F 85.7 °F 53.6 °F 31% 29.59 in 10.0 mi South 17.3 mph 25.3 mph N/A   Clear
3:55 PM 87.8 °F 85.7 °F 53.6 °F 31% 29.57 in 10.0 mi SSE 23.0 mph 27.6 mph N/A   Clear
4:15 PM 87.8 °F - 51.8 °F 29% 29.56 in 10.0 mi South 25.3 mph 32.2 mph N/A   Clear
4:35 PM 87.8 °F 85.7 °F 53.6 °F 31% 29.55 in 10.0 mi SSE 28.8 mph 38.0 mph N/A   Clear
4:55 PM 87.8 °F 85.7 °F 53.6 °F 31% 29.54 in 10.0 mi SSE 31.1 mph 38.0 mph N/A   Clear
5:15 PM 86.0 °F 84.5 °F 55.4 °F 35% 29.54 in 10.0 mi SSE 27.6 mph 35.7 mph N/A   Clear
5:35 PM 84.2 °F 82.8 °F 53.6 °F 35% 29.54 in 10.0 mi SSE 25.3 mph 32.2 mph N/A   Clear
5:55 PM 86.0 °F 84.5 °F 55.4 °F 35% 29.54 in 10.0 mi SSE 19.6 mph - N/A   Partly Cloudy
6:15 PM 84.2 °F 83.0 °F 55.4 °F 37% 29.53 in 10.0 mi South 19.6 mph 23.0 mph N/A   Clear
6:35 PM 86.0 °F - 46.4 °F 25% 29.52 in 10.0 mi South 18.4 mph 29.9 mph N/A   Clear
6:55 PM 84.2 °F - 48.2 °F 29% 29.52 in 10.0 mi South 17.3 mph - N/A   Clear
7:15 PM 84.2 °F - 46.4 °F 27% 29.51 in 10.0 mi South 17.3 mph - N/A   Clear
7:35 PM 82.4 °F - 46.4 °F 28% 29.52 in 10.0 mi South 12.7 mph 19.6 mph N/A   Clear
7:55 PM 78.8 °F - 48.2 °F 34% 29.52 in 10.0 mi South 12.7 mph - N/A   Clear
8:15 PM 77.0 °F - 46.4 °F 34% 29.53 in 10.0 mi SSW 15.0 mph - N/A   Clear
8:35 PM 73.4 °F - 46.4 °F 38% 29.54 in 10.0 mi South 15.0 mph - N/A   Clear
8:55 PM 75.2 °F - 46.4 °F 36% 29.54 in 10.0 mi South 15.0 mph 25.3 mph N/A   Clear
9:15 PM 73.4 °F - 46.4 °F 38% 29.56 in 10.0 mi South 18.4 mph - N/A   Clear
9:35 PM 71.6 °F - 48.2 °F 43% 29.57 in 10.0 mi South 17.3 mph - N/A   Clear
9:55 PM 71.6 °F - 48.2 °F 43% 29.57 in 10.0 mi South 19.6 mph 24.2 mph N/A   Clear
10:35 PM 69.8 °F - 48.2 °F 46% 29.58 in 10.0 mi South 16.1 mph 23.0 mph N/A   Clear
10:55 PM 68.0 °F - 48.2 °F 49% 29.58 in 10.0 mi South 16.1 mph - N/A   Clear
11:15 PM 68.0 °F - 48.2 °F 49% 29.58 in 10.0 mi South 19.6 mph - N/A   Clear
11:35 PM 69.8 °F - 46.4 °F 43% 29.58 in 10.0 mi South 20.7 mph 26.5 mph N/A   Clear
11:55 PM 68.0 °F - 46.4 °F 46% 29.59 in 10.0 mi South 21.9 mph 27.6 mph N/A   Clear